K2MIT Weather Reports


time (UTC)temp
C
wind
direction
speed
KPH
gust
KPH
rain 1hr
cm
rain 24hr
cm
rain mn
cm
humidity
%
barometer
mb
20260506121530 16 178 1.6 9.7 0.00 0.00 0.00 77 1009.7
20260506120039 16 248 4.8 11.3 0.00 0.00 0.00 79 1010.0
20260506114535 15 115 1.6 6.4 0.00 0.00 0.00 81 1010.0
20260506113035 15 184 0.0 8.0 0.00 0.00 0.00 85 1010.0
20260506111535 13 0 0.0 3.2 0.00 0.00 0.00 87 1009.8
20260506110032 13 134 0.0 6.4 0.00 0.00 0.00 87 1009.9
20260506104532 13 231 3.2 9.7 0.00 0.00 0.00 87 1009.9
20260506103034 13 0 0.0 8.0 0.00 0.00 0.00 87 1009.7
20260506101534 12 165 1.6 9.7 0.00 0.00 0.00 87 1009.5
20260506100037 12 150 1.6 6.4 0.00 0.00 0.00 87 1009.7
20260506094532 12 0 0.0 4.8 0.00 0.00 0.00 86 1009.6
20260506093033 12 186 1.6 11.3 0.00 0.00 0.00 86 1009.5
20260506091535 13 184 1.6 8.0 0.00 0.00 0.00 86 1009.6
20260506090030 13 161 1.6 4.8 0.00 0.00 0.00 86 1009.4
20260506084537 13 148 1.6 8.0 0.00 0.00 0.00 86 1009.8
20260506083035 13 0 1.6 8.0 0.00 0.00 0.00 85 1009.8
20260506081540 13 0 1.6 6.4 0.00 0.00 0.00 85 1009.9
20260506073034 13 200 1.6 8.0 0.00 0.00 0.00 84 1009.9
20260506071535 13 0 3.2 11.3 0.00 0.00 0.00 84 1010.2
20260506061531 13 148 1.6 6.4 0.00 0.00 0.00 81 1010.0
20260506044538 15 122 0.0 4.8 0.00 0.00 0.00 72 1010.5
20260506043030 16 135 1.6 6.4 0.00 0.00 0.00 71 1010.4
20260506041544 16 0 0.0 8.0 0.00 0.00 0.00 69 1010.3
20260506040035 16 205 3.2 11.3 0.00 0.00 0.00 68 1010.3
20260506034547 17 130 4.8 17.7 0.00 0.00 0.00 66 1010.4
20260506033035 17 205 8.0 17.7 0.00 0.00 0.00 65 1010.4
20260506031532 17 244 4.8 20.9 0.00 0.00 0.00 64 1010.1
20260506030038 17 186 6.4 16.1 0.00 0.00 0.00 63 1010.1
20260506024533 17 175 8.0 16.1 0.00 0.00 0.00 63 1010.2
20260506023034 17 184 6.4 17.7 0.00 0.00 0.00 63 1010.2
20260506021533 18 148 6.4 20.9 0.00 0.00 0.00 63 1010.1
20260506020030 18 216 8.0 25.7 0.00 0.00 0.00 62 1010.2
20260506014529 18 212 6.4 16.1 0.00 0.00 0.00 62 1010.0
20260506013048 18 219 9.7 25.7 0.00 0.00 0.00 62 1009.7
20260506011531 18 142 9.7 27.4 0.00 0.00 0.00 63 1009.6
20260506010035 18 285 3.2 17.7 0.00 0.00 0.00 63 1009.4
20260506004530 18 244 9.7 25.7 0.00 0.00 0.00 62 1009.3
20260506003032 18 171 6.4 25.7 0.00 0.00 0.00 63 1009.1
20260506001533 17 244 4.8 11.3 0.00 0.00 0.00 65 1008.8
20260506000033 18 143 1.6 9.7 0.00 0.00 0.00 64 1008.8
20260505234532 18 196 1.6 12.9 0.00 0.00 0.00 63 1008.6
20260505233031 19 205 3.2 19.3 0.00 0.00 0.00 61 1008.3
20260505231534 19 253 3.2 12.9 0.00 0.00 0.00 60 1008.5
20260505230049 20 190 3.2 14.5 0.00 0.00 0.00 58 1008.1
20260505224530 20 132 4.8 11.3 0.00 0.00 0.00 57 1007.8
20260505223040 20 159 3.2 12.9 0.00 0.00 0.00 57 1007.7
20260505221541 21 186 3.2 12.9 0.00 0.00 0.00 56 1007.8
20260505220048 21 174 4.8 19.3 0.00 0.00 0.00 53 1007.6
20260505214536 21 174 3.2 11.3 0.00 0.00 0.00 53 1007.5
20260505213035 22 153 6.4 17.7 0.00 0.00 0.00 52 1007.4
20260505211535 22 171 4.8 17.7 0.00 0.00 0.00 52 1007.6
20260505210035 22 218 4.8 17.7 0.00 0.00 0.00 51 1007.4
20260505204535 22 142 4.8 24.1 0.00 0.00 0.00 51 1007.4
20260505203033 22 134 4.8 22.5 0.00 0.00 0.00 50 1007.5
20260505201533 23 219 8.0 20.9 0.00 0.00 0.00 50 1007.4
20260505200037 23 178 6.4 19.3 0.00 0.00 0.00 49 1007.8
20260505194530 23 194 4.8 20.9 0.00 0.00 0.00 51 1008.2
20260505193031 23 191 12.9 35.4 0.00 0.00 0.00 49 1008.4
20260505191540 23 155 8.0 24.1 0.00 0.00 0.00 50 1008.3
20260505190034 23 124 4.8 32.2 0.00 0.00 0.00 49 1008.9
20260505184532 23 181 8.0 17.7 0.00 0.00 0.00 49 1009.1
20260505183036 24 150 6.4 24.1 0.00 0.00 0.00 49 1009.1
20260505181529 24 205 6.4 19.3 0.00 0.00 0.00 48 1009.1
20260505180033 25 101 8.0 24.1 0.00 0.00 0.00 46 1009.2
20260505174530 25 188 8.0 27.4 0.00 0.00 0.00 44 1009.2
20260505173035 25 208 9.7 22.5 0.00 0.00 0.00 43 1009.4
20260505171533 25 89 8.0 20.9 0.00 0.00 0.00 44 1009.4
20260505170035 25 180 6.4 20.9 0.00 0.00 0.00 44 1009.6
20260505164532 25 149 4.8 22.5 0.00 0.00 0.00 46 1009.8
20260505163033 25 150 3.2 19.3 0.00 0.00 0.00 47 1009.9
20260505161540 24 119 6.4 16.1 0.00 0.00 0.00 46 1010.0
20260505153033 23 235 6.4 24.1 0.00 0.00 0.00 46 1010.3
20260505151532 23 275 4.8 17.7 0.00 0.00 0.00 47 1010.6
20260505124539 17 0 0.0 6.4 0.00 0.00 0.00 70 1010.7
20260505123037 15 236 1.6 6.4 0.00 0.00 0.00 76 1010.7